TimeEDT,TemperatureF,Dew PointF,Humidity,Sea Level PressureIn,VisibilityMPH,Wind Direction,Wind SpeedMPH,Gust SpeedMPH,PrecipitationIn,Events,Conditions,WindDirDegrees,DateUTC
12:17 AM,61.2,59.5,94,29.71,10.0,WNW,6.9,-,N/A,,Scattered Clouds,290,2013-06-28 04:17:00
12:36 AM,61.2,59.5,94,29.71,10.0,West,6.9,-,N/A,Thunderstorm,Scattered Clouds,280,2013-06-28 04:36:00
12:57 AM,62.6,59.4,89,29.69,10.0,West,9.2,-,N/A,,Scattered Clouds,270,2013-06-28 04:57:00
1:16 AM,62.6,59.0,88,29.67,10.0,West,6.9,-,N/A,,Overcast,270,2013-06-28 05:16:00
1:36 AM,61.9,57.7,86,29.67,10.0,West,6.9,-,N/A,,Overcast,280,2013-06-28 05:36:00
1:57 AM,60.8,57.6,89,29.66,10.0,WNW,4.6,-,N/A,Rain,Light Rain,290,2013-06-28 05:57:00
2:36 AM,60.3,57.7,91,29.65,10.0,West,8.1,-,N/A,,Overcast,280,2013-06-28 06:36:00
2:56 AM,60.3,57.7,91,29.66,10.0,NW,5.8,-,N/A,,Overcast,320,2013-06-28 06:56:00
3:16 AM,60.3,57.7,91,29.66,10.0,North,3.5,-,N/A,,Overcast,10,2013-06-28 07:16:00
3:37 AM,61.0,59.0,93,29.66,10.0,ENE,3.5,-,N/A,,Overcast,60,2013-06-28 07:37:00
3:56 AM,61.3,58.8,91,29.66,10.0,Calm,Calm,-,N/A,,Overcast,0,2013-06-28 07:56:00
4:16 AM,60.1,58.5,94,29.66,10.0,ENE,4.6,-,N/A,,Overcast,60,2013-06-28 08:16:00
4:36 AM,59.0,57.7,96,29.66,0.8,NE,5.8,-,N/A,,Overcast,50,2013-06-28 08:36:00
4:56 AM,59.0,57.7,96,29.66,5.0,ENE,3.5,-,N/A,,Overcast,70,2013-06-28 08:56:00
5:17 AM,58.6,57.6,96,29.66,5.0,Calm,Calm,-,N/A,,Overcast,0,2013-06-28 09:17:00
5:36 AM,58.5,57.6,97,29.66,1.8,ENE,3.5,-,N/A,,Overcast,70,2013-06-28 09:36:00
5:56 AM,58.8,57.9,97,29.66,0.8,Calm,Calm,-,N/A,,Overcast,0,2013-06-28 09:56:00
6:50 AM,59.0,57.2,94,29.67,0.5,Calm,Calm,-,N/A,Fog,Fog,0,2013-06-28 10:50:00
7:15 AM,59.0,59.0,100,29.66,2.0,Calm,Calm,-,N/A,,Overcast,0,2013-06-28 11:15:00
7:50 AM,59.0,59.0,100,29.66,7.0,Calm,Calm,-,N/A,,Overcast,0,2013-06-28 11:50:00
8:50 AM,60.8,59.0,94,29.65,7.0,North,3.5,-,N/A,,Overcast,350,2013-06-28 12:50:00
9:30 AM,60.8,59.0,94,29.65,10.0,North,4.6,-,N/A,Rain,Light Rain,360,2013-06-28 13:30:00
9:50 AM,60.8,59.0,94,29.65,10.0,NNE,5.8,-,N/A,Rain,Light Rain,30,2013-06-28 13:50:00
10:50 AM,60.8,59.0,94,29.65,7.0,NE,10.4,-,N/A,,Light Drizzle,40,2013-06-28 14:50:00
11:33 AM,60.8,57.2,88,29.66,1.0,NNE,10.4,-,N/A,,Overcast,20,2013-06-28 15:33:00
11:46 AM,59.0,57.2,94,29.67,0.5,NNE,11.5,-,N/A,Fog,Fog,20,2013-06-28 15:46:00
12:46 PM,57.2,57.2,100,29.68,1.0,NNE,9.2,-,N/A,Rain,Rain,30,2013-06-28 16:46:00
1:45 PM,57.2,57.2,100,29.69,0.5,NNE,10.4,-,N/A,Fog,Fog,20,2013-06-28 17:45:00
2:50 PM,57.2,57.2,100,29.69,0.5,NNE,5.8,-,N/A,Fog,Fog,20,2013-06-28 18:50:00
3:50 PM,59.0,57.2,94,29.69,7.0,North,9.2,-,N/A,,Overcast,10,2013-06-28 19:50:00
4:33 PM,57.2,55.4,94,29.69,0.8,North,6.9,-,N/A,,Overcast,10,2013-06-28 20:33:00
4:50 PM,57.2,57.2,100,29.69,1.0,NNE,8.1,-,N/A,,Overcast,20,2013-06-28 20:50:00
5:55 PM,59.0,57.2,94,29.70,1.0,NNE,8.1,-,N/A,,Overcast,30,2013-06-28 21:55:00
6:50 PM,57.2,57.2,100,29.71,0.8,North,11.5,-,N/A,,Overcast,10,2013-06-28 22:50:00
7:18 PM,57.2,55.4,94,29.71,0.2,NNE,9.2,-,N/A,Fog,Fog,20,2013-06-28 23:18:00
8:55 PM,55.4,55.4,100,29.73,0.2,North,6.9,-,N/A,Fog,Fog,10,2013-06-29 00:55:00
9:50 PM,55.4,55.4,100,29.73,0.5,North,8.1,-,N/A,Fog,Fog,10,2013-06-29 01:50:00
10:16 PM,56.3,55.6,97,29.74,0.5,NNE,5.8,-,N/A,Fog,Fog,20,2013-06-29 02:16:00
10:36 PM,56.8,56.3,98,29.74,0.5,NNE,5.8,-,N/A,Fog,Fog,20,2013-06-29 02:36:00
10:57 PM,56.8,56.3,98,29.74,1.5,North,6.9,-,N/A,,Overcast,10,2013-06-29 02:57:00
11:16 PM,57.0,56.3,97,29.74,3.0,North,10.4,-,N/A,,Overcast,10,2013-06-29 03:16:00
11:36 PM,55.6,54.9,97,29.74,7.0,North,6.9,-,N/A,,Overcast,10,2013-06-29 03:36:00
11:56 PM,55.8,55.0,97,29.74,10.0,North,8.1,-,N/A,,Overcast,10,2013-06-29 03:56:00